TimeCST,TemperatureF,Dew PointF,Humidity,Sea Level PressureIn,VisibilityMPH,Wind Direction,Wind SpeedMPH,Gust SpeedMPH,PrecipitationIn,Events,Conditions,WindDirDegrees,DateUTC
12:00 AM,35.6,33.8,93,29.72,7.0,SE,10.4,-,N/A,,Scattered Clouds,140,2012-12-03 06:00:00
12:53 AM,37.0,34.0,89,29.74,8.0,SSE,9.2,-,N/A,,Scattered Clouds,150,2012-12-03 06:53:00
1:29 AM,37.4,33.8,87,29.68,7.0,SSE,10.4,-,N/A,,Overcast,150,2012-12-03 07:29:00
1:53 AM,37.0,35.1,93,29.71,6.0,SSE,10.4,-,N/A,,Overcast,150,2012-12-03 07:53:00
2:53 AM,39.9,37.0,89,29.70,6.0,SSE,10.4,-,N/A,,Overcast,160,2012-12-03 08:53:00
3:53 AM,39.9,37.0,89,29.65,5.0,SSE,11.5,-,N/A,,Overcast,150,2012-12-03 09:53:00
4:53 AM,39.9,37.0,89,29.63,4.0,SSE,8.1,-,N/A,,Overcast,150,2012-12-03 10:53:00
5:53 AM,39.9,37.0,89,29.61,5.0,SSE,9.2,-,N/A,,Mostly Cloudy,150,2012-12-03 11:53:00
6:53 AM,41.0,39.0,93,29.59,5.0,South,8.1,-,N/A,,Overcast,170,2012-12-03 12:53:00
7:42 AM,42.8,39.2,87,29.52,3.0,SSE,9.2,17.3,N/A,,Overcast,160,2012-12-03 13:42:00
7:53 AM,42.1,39.9,92,29.56,2.0,SSE,9.2,-,N/A,,Overcast,150,2012-12-03 13:53:00
8:02 AM,42.8,39.2,87,29.52,1.5,SSE,10.4,-,N/A,,Overcast,160,2012-12-03 14:02:00
8:13 AM,42.8,39.2,87,29.51,0.8,SSE,12.7,-,N/A,,Overcast,150,2012-12-03 14:13:00
9:17 AM,42.8,42.8,100,29.50,1.0,South,9.2,-,N/A,,Overcast,170,2012-12-03 15:17:00
9:53 AM,44.1,42.1,93,29.53,1.2,SSE,8.1,-,N/A,,Overcast,160,2012-12-03 15:53:00
10:53 AM,44.1,43.0,96,29.51,1.2,South,9.2,-,N/A,,Overcast,170,2012-12-03 16:53:00
11:53 AM,45.0,43.0,93,29.49,1.8,South,4.6,-,0.01,,Overcast,190,2012-12-03 17:53:00
12:11 PM,44.6,42.8,93,29.45,2.0,SSW,4.6,-,N/A,,Overcast,200,2012-12-03 18:11:00
12:29 PM,46.4,44.6,93,29.45,3.0,South,4.6,-,N/A,,Overcast,190,2012-12-03 18:29:00
12:46 PM,46.4,44.6,93,29.44,3.0,SW,5.8,-,N/A,,Overcast,220,2012-12-03 18:46:00
12:53 PM,46.0,44.1,93,29.48,3.0,SSW,5.8,-,N/A,,Overcast,210,2012-12-03 18:53:00
1:19 PM,46.4,44.6,93,29.45,4.0,SW,4.6,-,N/A,,Overcast,220,2012-12-03 19:19:00
1:36 PM,46.4,44.6,93,29.45,4.0,SW,5.8,-,N/A,,Overcast,230,2012-12-03 19:36:00
1:53 PM,46.0,43.0,89,29.48,5.0,SW,5.8,-,N/A,,Overcast,230,2012-12-03 19:53:00
2:08 PM,46.4,42.8,87,29.45,5.0,West,11.5,16.1,N/A,,Overcast,270,2012-12-03 20:08:00
2:21 PM,46.4,42.8,87,29.46,4.0,West,6.9,-,0.00,Rain,Light Rain,260,2012-12-03 20:21:00
2:24 PM,44.6,42.8,93,29.46,5.0,West,9.2,-,0.00,Rain,Light Rain,260,2012-12-03 20:24:00
2:53 PM,44.1,39.9,85,29.52,8.0,West,9.2,-,0.00,,Overcast,270,2012-12-03 20:53:00
3:12 PM,42.8,39.2,87,29.50,10.0,West,13.8,23.0,N/A,,Overcast,280,2012-12-03 21:12:00
3:32 PM,42.8,37.4,81,29.51,10.0,West,8.1,20.7,N/A,,Overcast,280,2012-12-03 21:32:00
3:53 PM,42.1,37.9,85,29.56,10.0,West,8.1,17.3,N/A,,Overcast,260,2012-12-03 21:53:00
4:43 PM,41.0,35.6,81,29.56,10.0,West,11.5,24.2,N/A,,Overcast,270,2012-12-03 22:43:00
4:53 PM,41.0,34.0,76,29.60,10.0,West,13.8,24.2,N/A,,Mostly Cloudy,270,2012-12-03 22:53:00
5:09 PM,39.2,33.8,81,29.57,10.0,West,8.1,16.1,N/A,,Scattered Clouds,260,2012-12-03 23:09:00
5:53 PM,39.0,33.1,79,29.62,10.0,WSW,6.9,-,N/A,,Partly Cloudy,250,2012-12-03 23:53:00
6:53 PM,39.0,30.9,73,29.65,10.0,West,9.2,21.9,N/A,,Mostly Cloudy,270,2012-12-04 00:53:00
7:53 PM,37.9,30.0,73,29.66,10.0,West,12.7,20.7,N/A,,Clear,260,2012-12-04 01:53:00
8:34 PM,37.4,28.4,70,29.63,10.0,West,11.5,26.5,N/A,,Mostly Cloudy,270,2012-12-04 02:34:00
8:53 PM,37.0,28.0,70,29.67,10.0,West,19.6,31.1,N/A,,Scattered Clouds,270,2012-12-04 02:53:00
9:53 PM,34.0,24.1,67,29.70,10.0,West,11.5,25.3,N/A,,Clear,280,2012-12-04 03:53:00
10:53 PM,28.9,18.0,64,29.75,10.0,West,10.4,24.2,N/A,,Clear,280,2012-12-04 04:53:00